"2009-09-01 00:00:00",1201249,5.129,97.4,1.824,0.182,21.34,109.6361,23.96,25.08,31.02,0,111,13.16,24.80,59.4
"2009-09-01 00:00:30",1201250,5.191,103,5.253,0.219,21.51,109.61,23.89,25.03,30.86,0,111,13.16,24.73,65.0
"2009-09-01 00:01:00",1201251,5.288,108,2.928,0.269,21.52,109.6078,23.89,25.01,30.8,0,111,13.16,24.72,70.0
"2009-09-01 00:01:30",1201252,5.234,111.1,3.29,0.205,21.57,109.5836,23.82,24.96,30.91,0,111,13.16,24.66,73.1
"2009-09-01 00:02:00",1201253,4.741,104.4,9.84,0.633,21.41,109.5752,23.8,24.94,31,0,111,13.16,24.64,66.4
"2009-09-01 00:02:30",1201254,4.415,110.7,10.29,0.62,21.21,109.5724,23.8,24.92,31.49,0,111,13.16,24.63,72.7
"2009-09-01 00:03:00",1201255,3.889,106.6,8.14,0.446,21.18,109.5462,23.73,24.88,31.72,0,111,13.16,24.56,68.6
"2009-09-01 00:03:30",1201256,3.592,95.6,8.75,0.337,21.18,109.5415,23.72,24.87,31.92,0,111,13.16,24.55,57.6
"2009-09-01 00:04:00",1201257,5.104,105.6,3.387,0.334,21.65,109.5348,23.7,24.83,31.29,0,111,13.16,24.53,67.6
"2009-09-01 00:04:30",1201258,4.532,102.8,5.662,0.428,21.49,109.5111,23.64,24.8,31.11,0,111,13.16,24.47,64.8
"2009-09-01 00:05:00",1201259,4.18,104.5,5.185,0.651,21.47,109.5081,23.63,24.76,31.31,0,111,13.16,24.47,66.5
"2009-09-01 00:05:30",1201260,4.49,109.5,6.133,0.212,21.58,109.5087,23.63,24.74,31.05,0,111,13.16,24.47,71.5
"2009-09-01 00:06:00",1201261,4.325,106.5,4.309,0.333,21.51,109.4943,23.6,24.72,31.05,0,111,13.16,24.43,68.5
"2009-09-01 00:06:30",1201262,4.115,105,8.07,0.315,21.41,109.4772,23.55,24.68,31.19,0,111,13.16,24.39,67.0
"2009-09-01 00:07:00",1201263,3.543,109.8,5.759,0.382,21.41,109.4756,23.55,24.67,31.3,0,111,13.16,24.38,71.8
"2009-09-01 00:07:30",1201264,4.702,102.6,5.811,0.382,21.49,109.4762,23.55,24.66,31.16,0,111,13.17,24.38,64.6
"2009-09-01 00:08:00",1201265,4.502,90.8,8.63,0.4,21.39,109.4763,23.55,24.62,31.3,0,111,13.17,24.38,52.8
"2009-09-01 00:08:30",1201266,3.363,88.9,10.71,0.293,21.24,109.4607,23.51,24.62,31.78,0,111,13.17,24.34,50.9
"2009-09-01 00:09:00",1201267,2.772,88.3,9.66,0.28,21.09,109.4488,23.48,24.6,32.21,0,111,13.17,24.31,50.3
"2009-09-01 00:09:30",1201268,3.184,101.2,4.94,0.224,21.16,109.4465,23.47,24.59,32.42,0,111,13.17,24.31,63.2
"2009-09-01 00:10:00",1201269,2.97,88.1,9.21,0.39,21.14,109.4499,23.48,24.56,32.35,0,111,13.17,24.32,50.1
"2009-09-01 00:10:30",1201270,2.724,88.9,8.58,0.277,21,109.4526,23.49,24.53,32.9,0,111,13.17,24.32,50.9
"2009-09-01 00:11:00",1201271,2.303,72.16,7.596,0.365,21.01,109.4467,23.47,24.53,32.99,0,111,13.17,24.31,34.2
"2009-09-01 00:11:30",1201272,2.603,74.79,8.2,0.238,20.89,109.4337,23.44,24.51,33.17,0,111,13.17,24.27,36.8
"2009-09-01 00:12:00",1201273,2.199,61.54,9.87,0.386,20.84,109.4308,23.43,24.5,33.59,0,111,13.17,24.27,23.5
"2009-09-01 00:12:30",1201274,2.635,46.89,9.81,0.261,20.66,109.4327,23.44,24.48,34.12,0,111,13.18,24.27,8.9
"2009-09-01 00:13:00",1201275,2.369,56.27,3.942,0.324,20.71,109.4334,23.44,24.46,34.66,0,111,13.18,24.27,18.3
"2009-09-01 00:13:30",1201276,2.287,83.2,13,0.573,21.04,109.4215,23.41,24.45,33.99,0,111,13.18,24.24,45.2
"2009-09-01 00:14:00",1201277,2.609,82.9,10.1,0.334,21.08,109.4039,23.36,24.43,33.47,0,111,13.18,24.20,44.9
"2009-09-01 00:14:30",1201278,2.204,73.73,8.68,0.475,21.12,109.4006,23.35,24.41,33.5,0,111,13.18,24.19,35.7
"2009-09-01 00:15:00",1201279,3.934,84.3,4.731,0.302,21.36,109.4012,23.36,24.38,33.07,0,111,13.18,24.19,46.3
"2009-09-01 00:15:30",1201280,3.56,77.79,4.989,0.476,21.24,109.3908,23.33,24.38,33.12,0,111,13.18,24.16,39.8
"2009-09-01 00:16:00",1201281,3.243,75.45,10.04,0.391,21.12,109.3727,23.28,24.36,33.29,0,111,13.18,24.12,37.4
"2009-09-01 00:16:30",1201282,3.65,79.31,9.42,0.469,21.13,109.3687,23.27,24.33,33.37,0,111,13.18,24.11,41.3
"2009-09-01 00:17:00",1201283,3.438,62.7,8.59,0.347,20.88,109.3703,23.28,24.3,34.17,0,111,13.18,24.11,24.7
"2009-09-01 00:17:30",1201284,2.472,55.92,8.2,0.536,20.8,109.349,23.22,24.29,34.88,0,111,13.18,24.06,17.9
"2009-09-01 00:18:00",1201285,1.405,55.2,8.91,0.265,20.64,109.3411,23.2,24.26,35.59,0,111,13.18,24.03,17.2
"2009-09-01 00:18:30",1201286,3.119,78.92,4.567,0.594,21.16,109.342,23.2,24.24,34.8,0,111,13.17,24.04,40.9
"2009-09-01 00:19:00",1201287,3.615,80.4,8.17,0.305,21.19,109.3409,23.2,24.23,34.14,0,111,13.17,24.03,42.4
"2009-09-01 00:19:30",1201288,3.135,86.1,4.469,0.254,21.19,109.3179,23.14,24.21,34.14,0,111,13.17,23.98,48.1
"2009-09-01 00:20:00",1201289,2.941,71.14,7.006,0.259,21.12,109.3086,23.12,24.19,34.26,0,111,13.17,23.95,33.1
"2009-09-01 00:20:30",1201290,2.701,68.4,2.724,0.162,21.06,109.3086,23.12,24.17,34.42,0,111,13.17,23.95,30.4
"2009-09-01 00:21:00",1201291,1.81,64.27,14.59,0.501,20.82,109.2985,23.09,24.14,35.94,0,111,13.17,23.93,26.3
"2009-09-01 00:21:30",1201292,2.653,75.37,12.04,0.867,21.04,109.276,23.03,24.14,35.95,0,111,13.17,23.87,37.4
"2009-09-01 00:22:00",1201293,3.024,58.38,5.112,0.239,21.04,109.2749,23.03,24.11,34.76,0,111,13.17,23.86,20.4
"2009-09-01 00:22:30",1201294,3.719,46.43,2.802,0.375,20.91,109.2749,23.03,24.07,35.24,0,111,13.17,23.86,8.4
"2009-09-01 00:23:00",1201295,3.264,41.78,4.422,0.353,20.95,109.2563,22.98,24.06,35.47,0,111,13.17,23.82,3.8
"2009-09-01 00:23:30",1201296,3.408,38.56,4.01,0.568,20.93,109.2417,22.95,24.03,35.39,0,111,13.18,23.78,0.6
"2009-09-01 00:24:00",1201297,3.773,38.37,3.79,0.287,20.93,109.2411,22.95,24.02,35.35,0,111,13.18,23.78,0.4
"2009-09-01 00:24:30",1201298,3.93,36.38,3.184,0.274,20.93,109.224,22.9,24,35.48,0,110.9,13.18,23.73,358.4
"2009-09-01 00:25:00",1201299,3.884,23.98,4.429,0.357,20.74,109.2074,22.86,23.97,36.77,0,111,13.18,23.69,346.0
"2009-09-01 00:25:30",1201300,4.127,19.81,3.786,0.411,20.59,109.2026,22.85,23.96,38.63,0,110.9,13.18,23.68,341.8
"2009-09-01 00:26:00",1201301,5.164,22.43,1.241,0.115,20.52,109.183,22.8,23.92,39.5,0,110.9,13.18,23.63,344.4
"2009-09-01 00:26:30",1201302,4.954,23.97,1.004,0.195,20.61,109.1737,22.77,23.9,38.45,0,110.9,13.18,23.60,346.0
"2009-09-01 00:27:00",1201303,5.142,24.67,1.404,0.22,20.53,109.1653,22.75,23.86,38.05,0,110.9,13.18,23.58,346.7
"2009-09-01 00:27:30",1201304,5.488,27.09,2.517,0.445,20.32,109.1408,22.69,23.84,39.08,0,110.9,13.18,23.52,349.1
"2009-09-01 00:28:00",1201305,6.238,30.57,1.236,0.435,20.28,109.118,22.63,23.8,39.79,0,110.9,13.18,23.46,352.6
"2009-09-01 00:28:30",1201306,5.969,30.33,1.456,0.357,20.29,109.0846,22.54,23.76,39.68,0,110.9,13.18,23.37,352.3
"2009-09-01 00:29:00",1201307,6.192,29.37,1.787,0.265,20.08,109.0506,22.46,23.7,41.39,0,110.9,13.18,23.29,351.4
"2009-09-01 00:29:30",1201308,7.31,31.94,1.44,0.565,20.04,109.0107,22.35,23.64,42.49,0,110.9,13.18,23.18,353.9
"2009-09-01 00:30:00",1201309,7.758,32.71,1.943,0.781,20.18,108.9668,22.24,23.59,42.74,0,110.9,13.18,23.07,354.7
"2009-09-01 00:30:30",1201310,7.321,32.75,1.613,0.65,20.26,108.9258,22.14,23.49,42.38,0,110.9,13.18,22.96,354.8
"2009-09-01 00:31:00",1201311,6.673,30.4,1.439,0.638,20.05,108.8881,22.04,23.41,43.75,0,110.9,13.19,22.87,352.4
"2009-09-01 00:31:30",1201312,6.029,28.65,1.463,0.325,20.13,108.8567,21.96,23.33,44.2,0,110.9,13.19,22.79,350.6
"2009-09-01 00:32:00",1201313,5.972,25.83,1.792,0.198,20.16,108.8248,21.88,23.26,44.42,0,110.9,13.19,22.70,347.8
"2009-09-01 00:32:30",1201314,5.967,26.88,2.925,0.373,20.08,108.8038,21.82,23.18,45.77,0,110.9,13.19,22.65,348.9
"2009-09-01 00:33:00",1201315,5.714,30.39,7.11,0.499,20.56,108.7787,21.76,23.1,43.63,0,110.9,13.19,22.59,352.4
"2009-09-01 00:33:30",1201316,5.868,40.22,2.46,0.273,21.06,108.77,21.74,23.03,39.86,0,110.9,13.19,22.56,2.2
"2009-09-01 00:34:00",1201317,5.778,46.04,2.291,0.177,21.14,108.7533,21.69,22.96,38.72,0,110.9,13.19,22.52,8.0
"2009-09-01 00:34:30",1201318,5.865,46.15,2.249,0.236,21.12,108.7566,21.7,22.91,38.45,0,110.9,13.19,22.53,8.2
"2009-09-01 00:35:00",1201319,5.486,45.1,0.621,0.156,21.03,108.752,21.69,22.87,38.35,0,110.9,13.19,22.52,7.1
"2009-09-01 00:35:30",1201320,5.061,45.5,1.076,0.178,21.01,108.7463,21.67,22.83,38.26,0,110.9,13.19,22.50,7.5
"2009-09-01 00:36:00",1201321,4.706,45.84,1.196,0.27,21.11,108.7423,21.66,22.82,38.27,0,110.9,13.19,22.49,7.8
"2009-09-01 00:36:30",1201322,4.379,44.15,2.056,0.109,21.05,108.7463,21.67,22.8,38.13,0,110.9,13.19,22.50,6.2
"2009-09-01 00:37:00",1201323,4.237,43.85,0.424,0.066,21.03,108.7525,21.69,22.77,38.06,0,110.9,13.19,22.52,5.8
"2009-09-01 00:37:30",1201324,4.039,43.03,0.878,0.126,21.09,108.7637,21.72,22.77,37.94,0,110.9,13.19,22.55,5.0
"2009-09-01 00:38:00",1201325,3.824,43.61,0.998,0.062,21.12,108.7692,21.73,22.76,37.83,0,110.9,13.19,22.56,5.6
"2009-09-01 00:38:30",1201326,3.754,44.15,0.859,0.088,21.1,108.7689,21.73,22.75,37.62,0,110.9,13.19,22.56,6.2
"2009-09-01 00:39:00",1201327,3.647,46.1,0.911,0.083,21.07,108.7695,21.73,22.75,37.47,0,110.9,13.19,22.56,8.1
"2009-09-01 00:39:30",1201328,3.647,46.33,1.019,0.098,21.08,108.7719,21.74,22.76,37.43,0,110.9,13.19,22.57,8.3
"2009-09-01 00:40:00",1201329,3.897,47.64,0.984,0.069,21.06,108.7835,21.77,22.76,37.22,0,110.9,13.19,22.60,9.6
"2009-09-01 00:40:30",1201330,4.005,48.68,1.74,0.063,21.08,108.8034,21.82,22.77,37.06,0,110.9,13.19,22.65,10.7
"2009-09-01 00:41:00",1201331,3.89,47.46,0.575,0.061,21.06,108.8057,21.83,22.79,36.94,0,110.9,13.19,22.66,9.5
"2009-09-01 00:41:30",1201332,3.609,49.24,1.796,0.104,21.07,108.8057,21.83,22.79,36.97,0,110.9,13.2,22.66,11.2
"2009-09-01 00:42:00",1201333,3.369,51.38,0.922,0.117,20.93,108.8079,21.83,22.8,37.4,0,110.9,13.2,22.66,13.4
"2009-09-01 00:42:30",1201334,3.367,46.37,3.37,0.125,20.59,108.8251,21.88,22.83,38.53,0,110.9,13.2,22.71,8.4
"2009-09-01 00:43:00",1201335,3.65,43.48,2.499,0.162,20.51,108.8394,21.91,22.85,40.16,0,110.9,13.2,22.74,5.5
"2009-09-01 00:43:30",1201336,3.906,36.12,4.218,0.42,20.48,108.8394,21.91,22.85,40.62,0,110.9,13.2,22.74,358.1
"2009-09-01 00:44:00",1201337,4.022,23.71,3.223,0.379,20.22,108.8394,21.91,22.87,42.49,0,110.9,13.2,22.74,345.7
"2009-09-01 00:44:30",1201338,4.123,28.56,2.619,0.329,20.23,108.8394,21.91,22.89,43.61,0,110.9,13.2,22.74,350.6
"2009-09-01 00:45:00",1201339,4.665,22.6,4.163,0.858,20.23,108.8394,21.91,22.89,43.95,0,110.9,13.2,22.74,344.6
"2009-09-01 00:45:30",1201340,3.958,14.58,4.1,0.845,20.15,108.8394,21.91,22.89,44.61,0,110.9,13.2,22.74,336.6
"2009-09-01 00:46:00",1201341,3.076,8.22,3.122,0.477,20.03,108.8394,21.91,22.9,46.63,0,110.9,13.2,22.74,330.2
"2009-09-01 00:46:30",1201342,4.269,12.16,2.253,0.393,20.02,108.8357,21.9,22.9,47.42,0,110.9,13.2,22.73,334.2
"2009-09-01 00:47:00",1201343,4.774,13.11,2.678,0.26,20.1,108.8149,21.85,22.89,47.08,0,110.9,13.2,22.68,335.1
"2009-09-01 00:47:30",1201344,4.831,13.54,2.594,0.345,20.15,108.8057,21.83,22.88,46.78,0,110.9,13.2,22.66,335.5
"2009-09-01 00:48:00",1201345,4.548,9.63,4.374,0.535,20.25,108.8057,21.83,22.87,46.07,0,110.9,13.2,22.66,331.6
"2009-09-01 00:48:30",1201346,5.491,14.16,4.731,0.85,20.46,108.7998,21.81,22.86,45.63,0,110.9,13.2,22.64,336.2
"2009-09-01 00:49:00",1201347,5.112,14.57,4.347,0.74,20.35,108.7761,21.75,22.84,45.65,0,110.9,13.2,22.58,336.6
"2009-09-01 00:49:30",1201348,5.271,14.44,4.072,0.644,20.47,108.7719,21.74,22.81,45.33,0,110.9,13.2,22.57,336.4
"2009-09-01 00:50:00",1201349,4.918,15.78,3.327,0.507,20.51,108.7702,21.74,22.8,44.69,0,110.9,13.2,22.56,337.8
"2009-09-01 00:50:30",1201350,5.676,16.96,4.128,0.73,20.52,108.7449,21.67,22.77,44.59,0,110.9,13.2,22.50,339.0
"2009-09-01 00:51:00",1201351,5.87,16.09,3.284,0.421,20.5,108.7382,21.65,22.75,44.32,0,110.9,13.2,22.48,338.1
"2009-09-01 00:51:30",1201352,5.54,20.75,2.037,0.413,20.5,108.7379,21.65,22.72,44.4,0,110.9,13.2,22.48,342.8
"2009-09-01 00:52:00",1201353,5.779,22.53,1.944,0.368,20.53,108.7166,21.6,22.7,44.31,0,110.9,13.2,22.43,344.5
"2009-09-01 00:52:30",1201354,5.576,23.98,3.107,0.432,20.58,108.7054,21.57,22.68,43.79,0,110.9,13.2,22.40,346.0
"2009-09-01 00:53:00",1201355,5.36,24.71,2.206,0.315,20.59,108.7064,21.57,22.66,43.44,0,110.9,13.2,22.40,346.7
"2009-09-01 00:53:30",1201356,4.766,27.14,2.877,0.393,20.72,108.6936,21.54,22.64,42.84,0,110.9,13.2,22.37,349.1
"2009-09-01 00:54:00",1201357,4.592,28.76,1.412,0.26,20.68,108.6785,21.5,22.63,42.45,0,110.9,13.2,22.33,350.8
"2009-09-01 00:54:30",1201358,4.689,29.05,1.753,0.347,20.62,108.678,21.5,22.58,42.51,0,110.9,13.2,22.33,351.0
"2009-09-01 00:55:00",1201359,4.637,29.45,1.141,0.234,20.63,108.6805,21.51,22.58,42.45,0,110.9,13.2,22.33,351.5
"2009-09-01 00:55:30",1201360,4.63,29.67,1.312,0.232,20.58,108.6651,21.47,22.56,42.89,0,110.9,13.2,22.29,351.7
"2009-09-01 00:56:00",1201361,4.429,28.91,1.671,0.259,20.56,108.6523,21.43,22.53,42.97,0,110.9,13.2,22.26,350.9
"2009-09-01 00:56:30",1201362,5.447,32.61,1.554,0.534,20.55,108.6471,21.42,22.52,42.9,0,110.9,13.2,22.25,354.6
"2009-09-01 00:57:00",1201363,5.559,33.89,1.109,0.341,20.56,108.6474,21.42,22.5,42.8,0,110.9,13.2,22.25,355.9
"2009-09-01 00:57:30",1201364,4.774,30.8,2.571,0.548,20.53,108.6501,21.43,22.48,43.01,0,110.9,13.2,22.25,352.8
"2009-09-01 00:58:00",1201365,4.797,31.82,1.981,0.502,20.49,108.6469,21.42,22.46,42.93,0,110.9,13.2,22.25,353.8
"2009-09-01 00:58:30",1201366,4.969,33.37,1.902,0.441,20.44,108.6404,21.4,22.45,43.16,0,110.9,13.2,22.23,355.4
"2009-09-01 00:59:00",1201367,5.375,34.38,1.781,0.645,20.24,108.6367,21.39,22.44,44.02,0,110.9,13.21,22.22,356.4
"2009-09-01 00:59:30",1201368,5.541,36.16,1.067,0.18,20.25,108.6236,21.36,22.43,44.52,0,110.9,13.21,22.19,358.2
"2009-09-01 01:00:00",1201369,5.293,39.08,3.425,0.145,20.49,108.6274,21.37,22.4,43.61,0,110.9,13.21,22.20,1.1
"2009-09-01 01:00:30",1201370,5.175,45.18,1.6,0.203,20.51,108.6277,21.37,22.4,43.31,0,110.9,13.21,22.20,7.2
"2009-09-01 01:01:00",1201371,5.177,45.96,2.503,0.147,20.42,108.6336,21.39,22.38,43.75,0,110.9,13.21,22.21,8.0
"2009-09-01 01:01:30",1201372,4.689,50.81,2.474,0.189,20.5,108.6289,21.37,22.38,43.67,0,110.9,13.21,22.20,12.8
"2009-09-01 01:02:00",1201373,4.843,54.52,1.466,0.149,20.48,108.6174,21.34,22.37,43.74,0,110.9,13.21,22.17,16.5
"2009-09-01 01:02:30",1201374,4.584,53.87,1.903,0.264,20.46,108.6079,21.32,22.35,43.8,0,110.9,13.21,22.15,15.9
"2009-09-01 01:03:00",1201375,4.577,59.19,1.12,0.109,20.6,108.6072,21.32,22.34,43.64,0,110.9,13.21,22.14,21.2
"2009-09-01 01:03:30",1201376,4.547,59.66,1.798,0.075,20.6,108.6055,21.31,22.33,43.62,0,110.8,13.21,22.14,21.7
"2009-09-01 01:04:00",1201377,4.612,64.91,2.024,0.098,20.67,108.6061,21.32,22.33,43.17,0,110.8,13.21,22.14,26.9
"2009-09-01 01:04:30",1201378,4.646,65.86,2.218,0.158,20.58,108.6061,21.32,22.32,43.13,0,110.8,13.21,22.14,27.9
"2009-09-01 01:05:00",1201379,4.533,68.61,1.922,0.154,20.56,108.6061,21.32,22.32,43.28,0,110.8,13.21,22.14,30.6
"2009-09-01 01:05:30",1201380,4.472,68.49,2.268,0.186,20.62,108.6061,21.32,22.29,43.17,0,110.8,13.21,22.14,30.5
"2009-09-01 01:06:00",1201381,4.181,62.6,2.508,0.133,20.54,108.6061,21.32,22.31,43.29,0,110.8,13.21,22.14,24.6
"2009-09-01 01:06:30",1201382,4.241,56.55,2.053,0.098,20.54,108.6061,21.32,22.3,43.44,0,110.8,13.21,22.14,18.5
"2009-09-01 01:07:00",1201383,4.432,55.78,2.617,0.097,20.53,108.6061,21.32,22.31,43.64,0,110.8,13.21,22.14,17.8
"2009-09-01 01:07:30",1201384,4.539,54.14,1.957,0.141,20.46,108.6061,21.32,22.32,43.93,0,110.8,13.21,22.14,16.1
"2009-09-01 01:08:00",1201385,4.767,46.94,1.44,0.233,20.4,108.6061,21.32,22.32,44.31,0,110.8,13.21,22.14,8.9
"2009-09-01 01:08:30",1201386,5.178,46.54,1.603,0.133,20.31,108.6061,21.32,22.33,45.04,0,110.8,13.21,22.14,8.5
"2009-09-01 01:09:00",1201387,5.438,45.31,2.42,0.197,20.08,108.6061,21.32,22.31,45.58,0,110.8,13.21,22.14,7.3
"2009-09-01 01:09:30",1201388,5.245,35.62,2.829,0.36,19.71,108.6061,21.32,22.32,47.37,0,110.8,13.21,22.14,357.6
"2009-09-01 01:10:00",1201389,4.849,28.05,1.892,0.387,19.34,108.6005,21.3,22.32,48.74,0,110.8,13.21,22.13,350.0
"2009-09-01 01:10:30",1201390,5.785,25.71,1.548,0.325,19.32,108.5724,21.23,22.3,49.06,0,110.8,13.2,22.05,347.7
"2009-09-01 01:11:00",1201391,5.883,26.59,1.232,0.303,19.33,108.5617,21.2,22.26,49.17,0,110.8,13.2,22.03,348.6
"2009-09-01 01:11:30",1201392,5.591,27.66,1.384,0.206,19.39,108.5367,21.14,22.25,49.07,0,110.8,13.21,21.96,349.7
"2009-09-01 01:12:00",1201393,5.638,29.42,0.931,0.329,19.48,108.5052,21.06,22.19,49.26,0,110.8,13.21,21.88,351.4
"2009-09-01 01:12:30",1201394,5.881,29.58,0.951,0.244,19.56,108.4717,20.97,22.15,49.56,0,110.8,13.21,21.80,351.6
"2009-09-01 01:13:00",1201395,5.841,29.75,0.922,0.27,19.64,108.4408,20.89,22.1,49.82,0,110.8,13.21,21.72,351.8
"2009-09-01 01:13:30",1201396,5.244,29.71,0.747,0.258,19.75,108.4093,20.81,22.03,50.03,0,110.8,13.21,21.63,351.7
"2009-09-01 01:14:00",1201397,5.25,30.09,1.027,0.231,19.8,108.3828,20.74,21.99,50.06,0,110.8,13.21,21.57,352.1
"2009-09-01 01:14:30",1201398,5.317,30.05,1.359,0.296,19.81,108.3569,20.68,21.92,50.12,0,110.8,13.21,21.50,352.0
"2009-09-01 01:15:00",1201399,5.638,30.9,1.106,0.401,19.89,108.3344,20.62,21.85,50.17,0,110.8,13.21,21.44,352.9
"2009-09-01 01:15:30",1201400,5.815,30.99,1.64,0.538,19.83,108.3044,20.54,21.82,50.17,0,110.8,13.21,21.36,353.0
"2009-09-01 01:16:00",1201401,5.323,31.23,1.629,0.424,19.89,108.2909,20.51,21.74,50.33,0,110.8,13.21,21.33,353.2
"2009-09-01 01:16:30",1201402,5.789,32.07,1.51,0.361,19.9,108.2686,20.45,21.7,50.27,0,110.8,13.22,21.27,354.1
"2009-09-01 01:17:00",1201403,6.047,33.39,1.98,0.491,19.91,108.2571,20.42,21.65,50.03,0,110.8,13.22,21.24,355.4
"2009-09-01 01:17:30",1201404,6.334,33.26,1.366,0.412,19.88,108.2349,20.36,21.6,49.89,0,110.8,13.22,21.19,355.3
"2009-09-01 01:18:00",1201405,6.597,34.18,1.055,0.372,19.93,108.2324,20.36,21.56,49.93,0,110.8,13.22,21.18,356.2
"2009-09-01 01:18:30",1201406,6.198,33.78,1.405,0.457,19.91,108.2099,20.3,21.52,49.75,0,110.8,13.22,21.12,355.8
"2009-09-01 01:19:00",1201407,6.697,37.02,1.398,0.114,19.9,108.2014,20.28,21.47,49.44,0,110.8,13.22,21.10,359.0
"2009-09-01 01:19:30",1201408,6.704,35.71,1.194,0.285,19.8,108.2033,20.28,21.44,49.09,0,110.8,13.22,21.10,357.7
"2009-09-01 01:20:00",1201409,6.928,35.51,0.84,0.157,19.84,108.1897,20.25,21.41,48.73,0,110.8,13.22,21.07,357.5
"2009-09-01 01:20:30",1201410,6.928,34.7,1.057,0.315,19.86,108.1778,20.22,21.38,48.15,0,110.8,13.22,21.04,356.7
"2009-09-01 01:21:00",1201411,6.358,33.24,1.279,0.419,19.83,108.1759,20.21,21.35,47.75,0,110.8,13.22,21.03,355.2
"2009-09-01 01:21:30",1201412,6.557,33.73,1.218,0.416,19.79,108.1771,20.21,21.33,46.92,0,110.8,13.22,21.04,355.7
"2009-09-01 01:22:00",1201413,6.442,33.38,1.282,0.364,19.77,108.1774,20.21,21.31,46.63,0,110.8,13.22,21.04,355.4
"2009-09-01 01:22:30",1201414,7.046,35.66,0.771,0.294,19.87,108.1796,20.22,21.29,46.04,0,110.8,13.22,21.04,357.7
"2009-09-01 01:23:00",1201415,6.538,34.61,1.231,0.312,19.87,108.1805,20.22,21.27,45.81,0,110.8,13.23,21.05,356.6
"2009-09-01 01:23:30",1201416,6.76,35.69,0.802,0.195,19.82,108.1807,20.22,21.25,45.71,0,110.8,13.23,21.05,357.7
"2009-09-01 01:24:00",1201417,6.656,35.56,1.271,0.363,19.83,108.191,20.25,21.25,45.63,0,110.8,13.23,21.07,357.6
"2009-09-01 01:24:30",1201418,6.707,35.69,1.179,0.234,19.87,108.194,20.26,21.25,45.26,0,110.8,13.23,21.08,357.7
"2009-09-01 01:25:00",1201419,6.736,35.87,0.859,0.172,19.9,108.1942,20.26,21.23,44.91,0,110.8,13.23,21.08,357.9
"2009-09-01 01:25:30",1201420,6.761,38.45,1.847,0.163,19.89,108.1975,20.27,21.23,44.22,0,110.8,13.23,21.09,0.5
"2009-09-01 01:26:00",1201421,6.544,37.68,3.274,0.509,19.87,108.1991,20.27,21.22,44.21,0,110.8,13.23,21.09,359.7
"2009-09-01 01:26:30",1201422,6.361,33.75,1.412,0.537,19.72,108.2003,20.27,21.23,45.31,0,110.8,13.22,21.10,355.8
"2009-09-01 01:27:00",1201423,6.574,33.5,2.257,0.583,19.76,108.2033,20.28,21.22,45.35,0,110.8,13.22,21.10,355.5
"2009-09-01 01:27:30",1201424,6.286,32.86,1.944,0.607,19.8,108.2036,20.28,21.21,45.06,0,110.8,13.22,21.10,354.9
"2009-09-01 01:28:00",1201425,6.459,33.21,1.41,0.495,19.82,108.2039,20.28,21.21,44.68,0,110.8,13.22,21.11,355.2
"2009-09-01 01:28:30",1201426,6.783,34.11,1.46,0.45,19.87,108.2039,20.28,21.22,44.5,0,110.8,13.22,21.11,356.1
"2009-09-01 01:29:00",1201427,7.203,34.81,0.899,0.297,19.83,108.2039,20.28,21.22,44.43,0,110.8,13.22,21.11,356.8
"2009-09-01 01:29:30",1201428,7.1,33.78,1.339,0.44,19.82,108.2039,20.28,21.22,44.34,0,110.8,13.22,21.11,355.8
"2009-09-01 01:30:00",1201429,7.136,33.87,1.203,0.53,19.84,108.2039,20.28,21.22,44.27,0,110.8,13.22,21.11,355.9
"2009-09-01 01:30:30",1201430,6.995,33.55,1.647,0.617,19.88,108.2039,20.28,21.22,44.16,0,110.8,13.22,21.11,355.5
"2009-09-01 01:31:00",1201431,6.858,34.25,2.098,0.811,19.92,108.2039,20.28,21.22,43.62,0,110.8,13.22,21.11,356.2
"2009-09-01 01:31:30",1201432,5.807,30.3,1.63,0.586,19.9,108.2039,20.28,21.23,43.57,0,110.8,13.22,21.11,352.3
"2009-09-01 01:32:00",1201433,6.018,29.5,1.662,0.351,19.93,108.2039,20.28,21.23,43.35,0,110.8,13.23,21.11,351.5
"2009-09-01 01:32:30",1201434,5.794,27.79,1.452,0.298,19.94,108.2039,20.28,21.24,43.37,0,110.8,13.23,21.11,349.8
"2009-09-01 01:33:00",1201435,6.825,31.96,1.622,0.755,19.9,108.2039,20.28,21.23,43.55,0,110.8,13.23,21.11,354.0
"2009-09-01 01:33:30",1201436,6.488,32.21,1.427,0.48,19.96,108.2039,20.28,21.24,43.09,0,110.8,13.23,21.11,354.2
"2009-09-01 01:34:00",1201437,7.745,34.84,1.592,0.517,19.97,108.2053,20.29,21.25,42.44,0,110.8,13.23,21.11,356.8
"2009-09-01 01:34:30",1201438,8.01,35.5,0.792,0.239,19.98,108.2124,20.3,21.25,42.16,0,110.8,13.23,21.13,357.5
"2009-09-01 01:35:00",1201439,7.413,34.68,1.413,0.586,19.99,108.2171,20.32,21.24,41.8,0,110.8,13.23,21.14,356.7
"2009-09-01 01:35:30",1201440,8.29,37.95,2.095,0.444,19.96,108.2346,20.36,21.27,41.1,0,110.8,13.23,21.18,360.0
"2009-09-01 01:36:00",1201441,8.03,39.87,2.937,0.363,20.03,108.2377,20.37,21.26,41.42,0,110.8,13.23,21.19,1.9
"2009-09-01 01:36:30",1201442,8.06,38.03,1.133,0.155,19.98,108.2377,20.37,21.28,40.43,0,110.8,13.23,21.19,0.0
"2009-09-01 01:37:00",1201443,8.23,38.5,0.779,0.06,19.89,108.2377,20.37,21.28,38.73,0,110.8,13.23,21.19,0.5
"2009-09-01 01:37:30",1201444,8.31,39.71,0.948,0.097,19.91,108.2399,20.38,21.3,38.54,0,110.8,13.23,21.20,1.7
"2009-09-01 01:38:00",1201445,8.31,42.07,1.011,0.187,20.01,108.2582,20.42,21.3,38.38,0,110.8,13.23,21.25,4.1
"2009-09-01 01:38:30",1201446,8.09,43.64,0.661,0.109,20.07,108.27,20.45,21.31,39.06,0,110.8,13.23,21.28,5.6
"2009-09-01 01:39:00",1201447,7.851,43.45,0.753,0.145,20.09,108.2714,20.46,21.34,38.94,0,110.8,13.23,21.28,5.5
"2009-09-01 01:39:30",1201448,7.961,44.09,0.856,0.12,20.16,108.2717,20.46,21.36,39.02,0,110.8,13.23,21.28,6.1
"2009-09-01 01:40:00",1201449,8.04,43.44,0.948,0.207,20.22,108.2824,20.48,21.38,37.88,0,110.8,13.23,21.31,5.4
"2009-09-01 01:40:30",1201450,7.845,41.51,1.222,0.13,20.13,108.3035,20.54,21.4,37.05,0,110.8,13.23,21.36,3.5
"2009-09-01 01:41:00",1201451,8.32,38.58,1.388,0.185,20.18,108.3052,20.54,21.44,37.86,0,110.8,13.23,21.37,0.6
"2009-09-01 01:41:30",1201452,8.34,39.25,1.163,0.158,20.24,108.3105,20.56,21.44,38.16,0,110.8,13.23,21.38,1.2
"2009-09-01 01:42:00",1201453,7.928,38.73,1.077,0.179,20.2,108.3345,20.62,21.46,37.94,0,110.8,13.23,21.44,0.7
"2009-09-01 01:42:30",1201454,7.704,38.26,1.677,0.147,20.26,108.339,20.63,21.5,37.84,0,110.8,13.23,21.45,0.3
"2009-09-01 01:43:00",1201455,7.615,36.67,0.837,0.25,20.23,108.3406,20.63,21.51,38.01,0,110.8,13.23,21.46,358.7
"2009-09-01 01:43:30",1201456,6.969,33.13,1.35,0.619,20.22,108.3665,20.7,21.55,38.75,0,110.8,13.23,21.52,355.1
"2009-09-01 01:44:00",1201457,6.84,31.94,1.855,0.798,20.15,108.3727,20.72,21.57,39.9,0,110.8,13.23,21.54,353.9
"2009-09-01 01:44:30",1201458,5.77,28.41,1.59,0.257,20.07,108.3727,20.72,21.59,40.68,0,110.8,13.23,21.54,350.4
"2009-09-01 01:45:00",1201459,6.079,29.74,1.76,0.428,20.11,108.3727,20.72,21.61,41.08,0,110.8,13.23,21.54,351.7
"2009-09-01 01:45:30",1201460,6.084,29.75,1.776,0.629,20.14,108.3764,20.73,21.63,41.33,0,110.8,13.23,21.55,351.8
"2009-09-01 01:46:00",1201461,5.926,28.42,1.371,0.241,20.11,108.3831,20.74,21.64,41.13,0,110.8,13.23,21.57,350.4
"2009-09-01 01:46:30",1201462,7.126,32.49,2.163,0.793,20.22,108.3882,20.76,21.68,40.89,0,110.8,13.23,21.58,354.5
"2009-09-01 01:47:00",1201463,6.724,31.29,1.992,0.622,20.22,108.3969,20.78,21.68,40.56,0,110.8,13.23,21.60,353.3
"2009-09-01 01:47:30",1201464,7.375,33.73,1.707,0.68,20.29,108.4017,20.79,21.69,40.23,0,110.8,13.23,21.61,355.7
"2009-09-01 01:48:00",1201465,7.457,34.36,1.362,0.465,20.29,108.4045,20.8,21.72,40.07,0,110.8,13.23,21.62,356.4